Location: Ferchesar
(52.6477°N, 12.4298°E)
Time: 13:47:28
(UTC+01:00)

AO-73 - Pass Details

Date: 29 October 2021
Orbit: 581 x 661 km, 97.6° (Epoch: 29 November)

Event Time Altitude Azimuth Distance (km) Brightness Sun altitude
Rises 05:53:00 0° 15° (NNE) 2,830 ? -19.9°
Reaches altitude 10° 05:55:09 10° 17° (NNE) 1,932 ? -19.6°
Maximum altitude 05:59:21 76° 103° (ESE) 623 ? -19.0°
Drops below altitude 10° 06:03:35 10° 190° (S) 1,955 ? -18.3°
Sets 06:05:47 0° 192° (SSW) 2,867 ? -18.0°
